sat.trackr.live / text

‹ back to catalog

STARLINK-4491

NORAD 53408 · 2022-097W

PAYLOAD ACTIVE UNKNOWN

§ Identity

Operator
Country
US
Launch date
2022-08-10
Launch site
AFETR
Launch vehicle
Mass (kg)
RCS (m²)

Purposes: comms

External: N2YO · Heavens-Above · Gunter

§ Orbital elements

Epoch: 2026-09-20T04:00:03.000096Z

Period
94.61 min
Inclination
53.1612°
Eccentricity
0.0002058
Mean motion
15.21968946 rev/d
Perigee alt
498.5 km
Apogee alt
501.3 km
Semi-major
6,878.0 km
B*
2.4875e-3
RAAN
319.5181°
Arg perigee
112.7404°
Mean anomaly
206.2012°
Rev number
578

§ Raw data

STARLINK-44911 53408U 22097W   26263.16670139  .00057594  00000+0  24875-2 0  99992 53408  53.1612 319.5181 0002058 112.7404 206.2012 15.21968946  5786

JSON: /api/v1/satellites/53408 · /tle

For live sub-satellite position, see the globe view (requires WebGL).

§ Visibility from observer

Set your observer location to see the next 7 days of passes ≥ 10°. The values pass through the URL so the page stays shareable.

No JS? Fill the form by hand. The geolocation button needs JavaScript.